Regional Weather Roundup
Issued by NWS

Home | Current Version | Previous Version | Text Only | Print | Product List | Glossary Off
Versions: 1 2 3 4 5 6 7 8 9 10 11 12 13 14 15 16 17 18 19 20 21 22 23 24 25 26 27 28 29 30 31 32 33 34 35 36 37 38 39 40 41 42 43 44 45 46 47 48 49 50

000
ASUS45 KSLC 050510
RWRUT

UTAH REGIONAL WEATHER ROUNDUP
NATIONAL WEATHER SERVICE SALT LAKE CITY UT
1100 PM MDT MON MAY 04 2015

UTZ001>011-023>025-050600-

NORTHERN UTAH

CITY           SKY/WX    TMP DP  RH WIND       PRES   REMARKS
BRIGHAM CITY   MOCLDY    57  47  68 N7        29.88F
HILL AFB       CLOUDY    57  44  60 E12       29.89S
LOGAN          PTCLDY    56  47  71 CALM      29.90S
OGDEN          CLOUDY    60  42  51 CALM      29.88R
PROVO AIRPORT  MOCLDY    57  46  67 SW10      29.92S
SALT LAKE CITY MOCLDY    64  43  46 SE5       29.87R
VERNAL         MOCLDY    59  39  47 NW7       29.95S
WENDOVER       CLOUDY    63  39  42 NE8G16    29.92R
HEBER CITY     CLOUDY    48  41  76 SE3       29.95S
WEST JORDAN    CLOUDY    59  46  63 CALM      29.90R

$$

UTZ012>022-026-027-050600-

SOUTHERN/CENTRAL UTAH

CITY           SKY/WX    TMP DP  RH WIND       PRES   REMARKS
BLANDING       CLOUDY    53  47  82 CALM      30.06R
BRYCE CANYON   RAIN      45  42  89 CALM      30.04S
CEDAR CITY     CLOUDY    53  42  66 SE6       29.95S
DELTA          MOCLDY    54  47  78 NE5       29.92S
HANKSVILLE     CLOUDY    59  48  67 CALM      29.91S
MILFORD        LGT RAIN  57  43  59 MISG      29.94R
MOAB/CYNLANDS  CLEAR     58  50  75 SW7       29.88S
PRICE          CLOUDY    55  44  66 W7        29.96R
ST GEORGE      MOCLDY    61  52  72 NE5       29.89F
KANAB          CLOUDY    54  46  76 N6        29.99R

$$

REGIONAL REPORTS     COLORADO/ARIZONA

CITY           SKY/WX    TMP DP  RH WIND       PRES   REMARKS
CRAIG, CO      PTCLDY    49  39  68 E10       30.01S
GRAND JUNCTION CLOUDY    57  45  64 E8        29.92R
RIFLE          MOCLDY    53  41  63 SE3       29.96S
MONTROSE       CLOUDY    49  45  86 SE8       29.99F
CORTEZ         CLOUDY    51  46  83 CALM      29.99S
PAGE, AZ       LGT RAIN  62  48  60 SW5       29.91R
GRAND CANYON   CLOUDY    40  38  93 CALM      30.02R
KINGMAN        CLOUDY    59  45  59 E8        29.92R
FLAGSTAFF      CLOUDY    42  39  89 CALM      30.02S

$$

REGIONAL REPORTS    NEVADA/IDAHO/WYOMING

CITY           SKY/WX    TMP DP  RH WIND       PRES   REMARKS
LAS VEGAS, NV  CLOUDY    72  43  35 S12       29.79R
ELY            PTCLDY    44  33  65 S9        29.97S
ELKO           CLOUDY    57  39  51 N3        29.94R
POCATELLO, ID  MOCLDY    57  41  55 N12       29.90R
BURLEY         MOCLDY    55  39  54 SW3       29.86R
EVANSTON, WY   MOCLDY    47  38  71 E8        30.03S
ROCK SPRINGS   MOCLDY    47  39  74 NE7       30.04F
KEMMERER       CLOUDY    46  36  66 NW3       30.05R

$$



USA.gov is the U.S. government's official web portal to all federal, state and local government web resources and services.